NOAA 16 DEB, 41058

Orbit data source: Space-Track

NOAA 16 DEB, 41058 is space debris in SSO originally from a launch on Thu, 21 Sep 2000 UTC launched from the Air Force Western Test Range (AFWTR). Debris objects in space refer to the collection of defunct objects orbiting the Earth. Examples of debris include non-operational satellites, rocket bodies, and fragments generated from explosions, collisions, or faulty payload assembly.

Loading next visibility...
Identifier
41058, 2000-055R
Orbit
SSO
Last TLE update
1 day ago
Origin
Manufacturer
Unknown
Mission
Spacecraft
Bus & Motor
Unknown
Mass
Unknown
Launch date (UTC)
2000-09-21 (25 years ago)
Launch vehicle
Unknown
Launch site
Air Force Western Test Range (AFWTR)
Object type
Payload
Rocket body
Debris
Shape & HBR
Unknown
Radar Cross Section
Small (<0.1 m²)

Expand to show TLE details & history

TLE from 1 day ago
0 NOAA 16 DEB
1 41058U 00055R   25182.97567299  .00000711  00000-0  40902-3 0  9997
2 41058  98.5820 189.7193 0025101  68.0444 292.3392 14.12115058493492
Epoch: 2025-07-01T23:24Z
TLE epoch observation values (Epoch: 2025-07-01T23:24:58.146Z)
Latitude
-0.0001°
Longitude
-81.78637°
Altitude
848.19 km
Speed
7.432 km/s
True Right ascension
12h 38m 52s
True Declination
0° 00' 00"
Sunlit
Object was in daylight at epoch
Visualization orbit readout
Latitude
76.60905°
Longitude
138.5454°
Altitude
850.429 km
Speed
7.442 km/s
Apparent Right ascension
05h 32m 25s
Apparent Declination
25° 17' 43"
Sunlit
Object is in daylight
Visualization observer readout
Local Sidereal Time
18:15:31
Azimuth
10.663° NNE
Elevation
-24.019°
Doppler factor
1
Orbital elements
Apogee altitude
867.448 km
Perigee altitude
831.165 km
Semi-major axis
7,227.443 km
Eccentricity
0.00251
Inclination
98.582°
RAAN
189.7193°
Arg. of periapsis
68.0444°
True anomaly
Unknown
Mean anomaly
292.3392°
Eccentric anomaly
Unknown
Mean motion
3.53237 °/min
Orbital period
101.91 mins
BSTAR
0.00040902
Loading maneuver chart data...
Loading SW <> Apogee altitude chart data...
Loading historical data...
Loading historical data...
Loading historical data...
Loading historical data...
Loading historical data...
Loading historical data...
Loading historical data...

NOAA 16 DEB Visibility forecast

Observer location: undefined°, undefined°

Span
Click to sort rows by Start time (UTC) header in descending order
Start Az.
Max El. time (UTC)
Max El. Az.
Max El.
End time (UTC)
End Az.
9 mins2025-07-03 13:24:50.451Z12.425° NNE2025-07-03 13:28:50.451Z342.613° N44.849°2025-07-03 13:33:50.451Z196.398° SSW
6 mins2025-07-03 23:11:50.451Z100.319° ESE2025-07-03 23:14:50.451Z60.545° ENE19.211°2025-07-03 23:17:50.451Z22.995° NE
9 mins2025-07-04 00:50:50.451Z187.162° SSW2025-07-04 00:54:50.451Z253.804° W38.445°2025-07-04 00:59:50.451Z335.394° NNW
|